Delaware, OH

10:20 PM EDT on June 23, 2017 (GMT -0400)
Delaware Municipal

Weather History for KDLZ - January, 2014

Change the Weather History Date:

Monday, January 13, 2014

  Actual Average Record
Temperature  
Mean Temperature 40 °F -  
Max Temperature 46 °F 31 °F 62 °F (2013)
Min Temperature 33 °F 12 °F -16 °F (1977)
Degree Days  
Heating Degree Days 26    
Moisture  
Dew Point 35 °F    
Average Humidity 79    
Maximum Humidity 100    
Minimum Humidity 61    
Precipitation  
Precipitation 0.06 in - - ()
Sea Level Pressure  
Sea Level Pressure 29.77 in    
Wind  
Wind Speed 11 mph (SSW)    
Max Wind Speed 15 mph    
Max Gust Speed 23 mph    
Visibility 9 miles    
Events Rain    
Averages and records for this station are not official NWS values.
T = Trace of Precipitation, MM = Missing Value Source: NWS Daily Summary

Daily Weather History Graph

Daily Weather History Graph

Search for Another Location

Airport or City:

Trip Planner

Search our weather history database for the weather conditions in past years. The results will help you decide how hot, cold, wet, or windy it might be!

Date:

Astronomy

Jan. 13, 2014 Rise Set
Actual Time 7:53 AM EST 5:28 PM EST
Civil Twilight 7:23 AM EST 5:58 PM EST
Nautical Twilight 6:50 AM EST 6:32 PM EST
Astronomical Twilight 6:17 AM EST 7:05 PM EST
Moon 3:43 PM EST (1/13) 5:41 AM EST (1/13)
Length of Visible Light 10h 34m
Length of Day
9h 34m
Waxing Gibbous, 95% of the Moon is Illuminated
Jan 13
Waxing Gibbous
Jan 15
Full
Jan 24
Last Quarter
Jan 30
New
Feb 6
First Quarter

Hourly Weather History & Observations

Time (EST) Temp. Windchill Dew Point Humidity Pressure Visibility Wind Dir Wind Speed Gust Speed Precip Events Conditions
12:14 AM 33.8 °F 25.8 °F 30.2 °F 87% 29.88 in 10.0 mi South 10.4 mph - N/A   Clear
12:34 AM 35.6 °F 27.5 °F 30.2 °F 81% 29.87 in 10.0 mi South 11.5 mph 16.1 mph N/A   Clear
12:54 AM 35.6 °F 28.0 °F 30.2 °F 81% 29.87 in 10.0 mi South 10.4 mph - N/A   Clear
1:14 AM 35.6 °F 28.6 °F 28.4 °F 75% 29.87 in 10.0 mi South 9.2 mph - N/A   Clear
1:34 AM 35.6 °F 28.0 °F 30.2 °F 81% 29.87 in 10.0 mi South 10.4 mph - N/A   Clear
1:54 AM 35.6 °F 28.0 °F 28.4 °F 75% 29.88 in 10.0 mi South 10.4 mph - N/A   Clear
2:14 AM 35.6 °F 29.2 °F 28.4 °F 75% 29.89 in 10.0 mi South 8.1 mph - N/A   Clear
2:34 AM 33.8 °F 25.8 °F 28.4 °F 81% 29.88 in 10.0 mi South 10.4 mph - N/A   Clear
2:54 AM 33.8 °F 25.8 °F 30.2 °F 87% 29.88 in 10.0 mi South 10.4 mph - N/A   Clear
3:14 AM 35.6 °F 28.0 °F 30.2 °F 81% 29.87 in 10.0 mi South 10.4 mph - N/A   Clear
3:34 AM 35.6 °F 28.6 °F 30.2 °F 81% 29.87 in 10.0 mi South 9.2 mph - N/A   Clear
3:54 AM 35.6 °F 28.6 °F 30.2 °F 81% 29.86 in 10.0 mi South 9.2 mph - N/A   Clear
4:14 AM 35.6 °F 27.5 °F 30.2 °F 81% 29.85 in 10.0 mi South 11.5 mph - N/A   Clear
4:34 AM 35.6 °F 28.0 °F 30.2 °F 81% 29.84 in 10.0 mi South 10.4 mph - N/A   Clear
4:54 AM 37.4 °F 29.8 °F 30.2 °F 75% 29.84 in 10.0 mi South 11.5 mph - N/A   Clear
5:14 AM 37.4 °F 30.3 °F 30.2 °F 75% 29.85 in 10.0 mi South 10.4 mph - N/A   Clear
5:34 AM 37.4 °F 29.8 °F 30.2 °F 75% 29.84 in 10.0 mi South 11.5 mph 16.1 mph N/A   Clear
5:54 AM 37.4 °F 28.9 °F 30.2 °F 75% 29.84 in 10.0 mi South 13.8 mph - N/A   Clear
6:14 AM 37.4 °F 30.3 °F 30.2 °F 75% 29.83 in 10.0 mi South 10.4 mph - N/A   Clear
6:34 AM 37.4 °F 29.3 °F 30.2 °F 75% 29.82 in 10.0 mi South 12.7 mph - N/A   Clear
6:54 AM 39.2 °F 32.0 °F 30.2 °F 70% 29.82 in 10.0 mi South 11.5 mph - N/A   Clear
7:14 AM 39.2 °F 32.0 °F 30.2 °F 70% 29.80 in 10.0 mi South 11.5 mph 17.3 mph N/A   Clear
7:34 AM 39.2 °F 32.0 °F 30.2 °F 70% 29.81 in 10.0 mi South 11.5 mph - N/A   Clear
7:54 AM 39.2 °F 31.6 °F 32.0 °F 75% 29.80 in 10.0 mi South 12.7 mph - N/A   Clear
8:14 AM 41.0 °F 34.7 °F 32.0 °F 70% 29.78 in 10.0 mi South 10.4 mph - N/A   Clear
8:35 AM 41.0 °F 34.3 °F 32.0 °F 70% 29.77 in 10.0 mi South 11.5 mph 17.3 mph N/A   Clear
8:54 AM 42.8 °F 36.6 °F 32.0 °F 66% 29.77 in 10.0 mi South 11.5 mph - N/A   Clear
9:14 AM 42.8 °F 36.6 °F 32.0 °F 66% 29.78 in 10.0 mi South 11.5 mph - N/A   Clear
9:35 AM 42.8 °F 36.6 °F 32.0 °F 66% 29.79 in 10.0 mi South 11.5 mph 17.3 mph N/A   Clear
9:54 AM 42.8 °F 35.4 °F 32.0 °F 66% 29.79 in 10.0 mi SSW 15.0 mph 21.9 mph N/A   Mostly Cloudy
10:14 AM 44.6 °F 37.8 °F 32.0 °F 61% 29.78 in 10.0 mi South 15.0 mph 21.9 mph N/A   Mostly Cloudy
10:35 AM 44.6 °F 38.4 °F 32.0 °F 61% 29.77 in 10.0 mi South 12.7 mph 18.4 mph N/A   Mostly Cloudy
10:54 AM 42.8 °F 36.6 °F 32.0 °F 66% 29.76 in 10.0 mi South 11.5 mph 18.4 mph N/A   Overcast
11:14 AM 42.8 °F 36.2 °F 32.0 °F 66% 29.75 in 10.0 mi South 12.7 mph - N/A   Mostly Cloudy
11:34 AM 42.8 °F 38.0 °F 33.8 °F 70% 29.76 in 10.0 mi South 8.1 mph 16.1 mph N/A   Mostly Cloudy
11:54 AM 44.6 °F 39.7 °F 32.0 °F 61% 29.75 in 10.0 mi South 9.2 mph - N/A   Clear
12:14 PM 44.6 °F 40.2 °F 33.8 °F 66% 29.74 in 10.0 mi South 8.1 mph - N/A   Mostly Cloudy
12:34 PM 44.6 °F 39.2 °F 33.8 °F 66% 29.73 in 10.0 mi South 10.4 mph - N/A   Overcast
12:54 PM 44.6 °F 38.8 °F 33.8 °F 66% 29.72 in 10.0 mi South 11.5 mph 18.4 mph N/A   Overcast
1:14 PM 46.4 °F 40.4 °F 35.6 °F 66% 29.71 in 10.0 mi SSW 13.8 mph 17.3 mph N/A   Overcast
1:34 PM 46.4 °F 41.1 °F 35.6 °F 66% 29.70 in 10.0 mi South 11.5 mph - N/A   Drizzle
1:54 PM 46.4 °F 41.5 °F 35.6 °F 66% 29.70 in 10.0 mi South 10.4 mph 19.6 mph N/A   Overcast
2:14 PM 46.4 °F 40.7 °F 35.6 °F 66% 29.71 in 10.0 mi South 12.7 mph - N/A   Overcast
2:34 PM 46.4 °F 40.4 °F 35.6 °F 66% 29.70 in 10.0 mi South 13.8 mph 20.7 mph N/A   Overcast
2:54 PM 46.4 °F 40.7 °F 35.6 °F 66% 29.70 in 10.0 mi South 12.7 mph 19.6 mph N/A   Overcast
3:14 PM 46.4 °F 40.7 °F 35.6 °F 66% 29.71 in 10.0 mi South 12.7 mph - N/A   Overcast
3:34 PM 46.4 °F 41.1 °F 37.4 °F 71% 29.70 in 10.0 mi South 11.5 mph 21.9 mph N/A   Overcast
3:54 PM 46.4 °F 41.1 °F 37.4 °F 71% 29.71 in 10.0 mi SSW 11.5 mph 16.1 mph N/A   Overcast
4:14 PM 46.4 °F 40.4 °F 39.2 °F 76% 29.71 in 10.0 mi South 13.8 mph - N/A   Overcast
4:34 PM 46.4 °F 40.4 °F 39.2 °F 76% 29.71 in 10.0 mi South 13.8 mph 23.0 mph N/A   Overcast
4:54 PM 46.4 °F 40.7 °F 41.0 °F 81% 29.71 in 5.0 mi SSW 12.7 mph 21.9 mph N/A   Drizzle
5:14 PM 44.6 °F 38.4 °F 42.8 °F 93% 29.71 in 7.0 mi South 12.7 mph 19.6 mph 0.02 in Rain Heavy Rain
5:34 PM 44.6 °F 38.4 °F 42.8 °F 93% 29.70 in 7.0 mi South 12.7 mph 16.1 mph 0.03 in Rain Rain
5:54 PM 44.6 °F 38.4 °F 42.8 °F 93% 29.70 in 10.0 mi South 12.7 mph 19.6 mph 0.04 in Rain Light Rain
6:14 PM 44.6 °F 38.8 °F 42.8 °F 93% 29.70 in 10.0 mi SSW 11.5 mph 17.3 mph 0.01 in Rain Rain
6:34 PM 44.6 °F 38.4 °F 42.8 °F 93% 29.69 in 10.0 mi SSW 12.7 mph - 0.01 in   Drizzle
6:54 PM 44.6 °F 39.7 °F 42.8 °F 93% 29.70 in 10.0 mi SSW 9.2 mph 18.4 mph 0.01 in   Drizzle
7:14 PM 44.6 °F 38.8 °F 42.8 °F 93% 29.70 in 10.0 mi SSW 11.5 mph - N/A Rain Rain
7:34 PM 44.6 °F 38.8 °F 42.8 °F 93% 29.70 in 5.0 mi SSW 11.5 mph - N/A Rain Rain
7:54 PM 44.6 °F 39.2 °F 42.8 °F 93% 29.71 in 4.0 mi SSW 10.4 mph - 0.01 in   Drizzle
8:14 PM 44.6 °F 40.2 °F 42.8 °F 93% 29.71 in 7.0 mi SSW 8.1 mph - N/A   Drizzle
8:34 PM 42.8 °F 37.0 °F 42.8 °F 100% 29.71 in 5.0 mi SW 10.4 mph - N/A   Drizzle
8:54 PM 42.8 °F 37.5 °F 42.8 °F 100% 29.71 in 5.0 mi SW 9.2 mph - N/A   Light Drizzle
9:14 PM 42.8 °F 38.0 °F 42.8 °F 100% 29.71 in 7.0 mi SW 8.1 mph - N/A   Light Drizzle
9:34 PM 42.8 °F 38.6 °F 42.8 °F 100% 29.71 in 10.0 mi SW 6.9 mph - N/A   Overcast
9:54 PM 42.8 °F 39.3 °F 42.8 °F 100% 29.71 in 10.0 mi SW 5.8 mph - N/A   Overcast
10:14 PM 42.8 °F 40.1 °F 42.8 °F 100% 29.71 in 10.0 mi SW 4.6 mph - N/A   Overcast
10:34 PM 42.8 °F 39.3 °F 41.0 °F 93% 29.72 in 10.0 mi SW 5.8 mph - N/A   Overcast
10:54 PM 42.8 °F 40.1 °F 41.0 °F 93% 29.72 in 7.0 mi SW 4.6 mph - N/A   Overcast
11:14 PM 42.8 °F 40.1 °F 41.0 °F 93% 29.72 in 7.0 mi WSW 4.6 mph - N/A   Overcast
11:34 PM 42.8 °F 39.3 °F 41.0 °F 93% 29.72 in 10.0 mi West 5.8 mph - N/A   Overcast
11:54 PM 41.0 °F 35.2 °F 41.0 °F 100% 29.72 in 10.0 mi West 9.2 mph - N/A   Mostly Cloudy